Location: Unspecified
(49.2170°N, 0.0000°E)
Time: 13:45:41
(UTC+00:00)

Vanguard 3 - Pass Details

Date: 21 January 2021
Orbit: 508 x 3261 km, 33.3° (Epoch: 28 February)

Event Time Altitude Azimuth Distance (km) Brightness Sun altitude
Rises 09:59:19 0° 268° (W) 5,631 11.2 15.0°
Reaches altitude 10° 10:03:34 10° 256° (WSW) 5,020 11.1 15.4°
Maximum altitude 10:14:52 25° 209° (SSW) 4,623 11.6 16.3°
Drops below altitude 10° 10:28:45 10° 164° (SSE) 6,189 13.9 17.3°
Sets 10:34:58 0° 153° (SSE) 7,180 13.7 17.7°
